Tracking 17149 objects as of 22-May-2015
HD Live streaming from Space Station

SL-14 R/B

Track SL-14 R/B now!
10-day predictions
SL-14 R/B is classified as:


NORAD ID: 16736
Int'l Code: 1986-039B
Perigee: 943.9 km
Apogee: 964.7 km
Inclination: 82.5 °
Period: 104.0 minutes
Semi major axis: 7325 km
RCS: 5.1168 m2 (large)
Launch date: May 27, 1986
Source: Commonwealth of Independent States (former USSR) (CIS)

Note: This is a ROCKET BODY
Your satellite tracking list
Your tracking list is empty





NASA's NSSDC Master Catalog

Two Line Element Set (TLE):
1 16736U 86039B   15141.42644699  .00000038  00000-0  20468-4 0  9990
2 16736 082.5380 270.5564 0014174 069.6252 290.6430 13.84726892464836

Source of the keplerian elements: AFSPC

N2YO: 445